[[{"header":{"parameterUnit":"m.s-1","parameterCategory":1,"la1":30.2991,"la2":30.254,"lo1":-89.0895,"lo2":-89.0444,"dy":0.0017,"dx":0.0017,"nx":28,"ny":28,"refTime":"2023-08-16T21:00:00:Z","depth":0,"parameterNumber":2,"parameterNumberName":"U-component_of_WINDS"},"data":[0,0,0,0,0,0,0,0,0,0,0,0,0,0,0,0,0,0,0,0,0,0,0,0,0,0,0,0,0,0,0,0,0,0,0,0,0,0,0,0,0,0,0,0,0,0,0,0,0,0,0,0,0,0,0,0,0,0,1.155,1.1552,0,1.169,1.1692,1.1694,1.1743,1.1743,1.1742,1.1742,1.1886,1.189,1.1894,0,0,0,0,0,0,0,0,0,0,0,0,0,1.1323,1.1327,1.155,1.1552,1.1554,1.169,1.1692,1.1694,1.1743,1.1743,1.1742,1.1742,1.1884,1.1889,1.1894,0,0,0,0,0,0,0,0,0,0,0,0,0,1.1439,1.1329,1.155,1.1595,1.16,1.169,1.1692,1.1695,1.1744,1.1743,1.1742,1.1741,1.1882,1.1889,1.1895,1.195,0,0,1.1915,1.1918,0,0,0,0,0,0,0,0,1.1432,1.1447,1.1586,1.1592,1.1598,1.1699,1.1665,1.178,1.1744,1.1689,1.1742,1.1741,1.1824,1.1835,1.1863,1.1957,1.1963,1.1915,1.1919,1.1922,1.1924,0,0,0,0,0,0,0,1.1424,1.1441,1.1606,1.1588,1.1595,1.1607,1.1623,1.1687,1.1759,1.1694,1.1698,1.1714,1.1827,1.1857,1.1867,1.1965,1.1915,1.1921,1.1925,1.1927,1.211,1.211,0,0,0,0,0,0,1.1409,1.1434,1.1601,1.161,1.1511,1.1612,1.1629,1.1667,1.1759,1.1772,1.1714,1.1715,1.1846,1.1859,1.1872,1.1942,1.1922,1.1928,1.1932,1.2109,1.211,1.2111,0,0,0,0,0,0,1.1403,1.1423,1.1596,1.1523,1.1546,1.1617,1.1659,1.167,1.17,1.1774,1.1787,1.1731,1.1846,1.1863,1.193,1.1947,1.1931,1.1937,1.2107,1.2109,1.211,1.2081,0,0,0,0,0,0,1.1397,1.1421,1.1443,1.1523,1.155,1.1651,1.166,1.1674,1.1711,1.1714,1.1794,1.1806,1.1847,1.192,1.1936,1.1956,1.1942,1.2106,1.2108,1.211,1.2081,1.2082,1.2082,0,0,0,0,0,1.1389,1.143,1.1444,1.1464,1.1579,1.1652,1.1667,1.1713,1.1712,1.1735,1.1782,1.1804,1.1943,1.1927,1.1945,1.1967,1.2105,1.2108,1.211,1.2081,1.2082,1.2082,0,0,0,0,0,0,1.135,1.1441,1.1458,1.1526,1.1581,1.1661,1.169,1.1713,1.1769,1.177,1.1824,1.1842,1.1904,1.1943,1.1923,1.2024,1.2025,1.2031,1.1997,1.1998,1.1999,1.1988,1.1947,0,0,0,0,0,1.1349,1.1402,1.1479,1.1531,1.1558,1.1619,1.1653,1.1683,1.1742,1.1766,1.1818,1.1874,1.1931,1.1967,1.2023,1.2087,1.2104,1.2111,1.2111,1.2111,1.2116,1.2151,1.2155,1.2118,1.2118,1.2118,0,0,1.1349,1.1405,1.1435,1.1525,1.1571,1.1623,1.1639,1.1694,1.1733,1.1774,1.184,1.188,1.1947,1.2012,1.2043,1.2046,1.213,1.2114,1.2114,1.2118,1.2154,1.2157,1.216,1.2119,1.2119,1.2119,0,0,1.1374,1.1423,1.1471,1.1517,1.1586,1.1626,1.1638,1.1714,1.1742,1.1809,1.1841,1.1888,1.1984,1.203,1.2065,1.2106,1.2127,1.2123,1.2125,1.2159,1.2162,1.2165,1.2178,1.2182,1.2127,1.2127,1.2127,0,1.1365,1.1445,1.1493,1.1547,1.1585,1.1624,1.1673,1.1715,1.1799,1.1824,1.1826,1.1946,1.1994,1.2069,1.2079,1.2107,1.2121,1.2114,1.2157,1.2161,1.2164,1.2177,1.2182,1.2126,1.2126,1.2126,1.2126,0,1.1429,1.1484,1.1515,1.1595,1.1637,1.1687,1.1742,1.1779,1.1805,1.1845,1.1912,1.197,1.2037,1.2058,1.2085,1.2137,1.2136,1.2147,1.2149,1.2166,1.2179,1.2185,1.2124,1.2124,1.2125,1.2125,0,0,1.1435,1.154,1.155,1.1586,1.1665,1.1708,1.176,1.1826,1.1855,1.1911,1.1956,1.2035,1.2045,1.2085,1.2118,1.2147,1.2174,1.2154,1.2157,1.2155,1.2234,1.2224,1.223,1.2189,1.219,1.2191,1.2228,0,1.147,1.1565,1.1609,1.1684,1.1734,1.1772,1.1817,1.187,1.1908,1.1956,1.1998,1.2053,1.2063,1.2087,1.2118,1.2164,1.219,1.2162,1.223,1.2231,1.2211,1.2237,1.2228,1.226,1.2233,1.2234,1.2235,0,1.1524,1.1579,1.1659,1.173,1.1753,1.1793,1.1856,1.1902,1.1962,1.1987,1.2031,1.2062,1.2117,1.2115,1.2191,1.2171,1.2201,1.2227,1.223,1.2237,1.2234,1.2245,1.2272,1.2276,1.2244,1.2243,1.2243,0,1.1518,1.1613,1.1672,1.1702,1.1787,1.1814,1.185,1.191,1.1946,1.2001,1.2025,1.2086,1.2119,1.2165,1.2211,1.2205,1.2282,1.2284,1.2304,1.2303,1.2318,1.2316,1.235,1.2338,1.2338,1.2338,1.2338,0,1.1552,1.1599,1.1671,1.1707,1.1761,1.181,1.1862,1.1901,1.1953,1.1997,1.2034,1.2075,1.2133,1.2181,1.2217,1.2274,1.2289,1.231,1.2319,1.2307,1.2304,1.2327,1.2326,1.234,1.2339,1.2339,1.2339,0,1.1555,1.1605,1.1672,1.1747,1.1767,1.1802,1.1866,1.1902,1.1942,1.1997,1.2013,1.2075,1.2133,1.2183,1.226,1.2284,1.2342,1.2354,1.2322,1.2327,1.2343,1.2341,1.2392,1.2401,1.2384,1.2384,1.2384,0,1.1573,1.161,1.1688,1.172,1.1756,1.1807,1.1844,1.1895,1.1931,1.2002,1.2029,1.209,1.2141,1.2232,1.2283,1.2342,1.2354,1.2368,1.2363,1.2349,1.2353,1.235,1.2354,1.2368,1.2368,1.2368,1.2368,0,1.1599,1.1621,1.1673,1.1734,1.1777,1.1827,1.1878,1.1902,1.1961,1.2001,1.206,1.21,1.2177,1.2237,1.2301,1.2338,1.2362,1.2369,1.2376,1.2364,1.2344,1.2354,1.2321,1.2367,1.2368,1.2368,1.2368,1.2368,1.1609,1.1643,1.1703,1.1759,1.1803,1.1849,1.1887,1.1931,1.1981,1.2048,1.2075,1.2135,1.2193,1.2281,1.2318,1.2366,1.237,1.2381,1.2384,1.2386,1.2383,1.2336,1.2378,1.2378,1.2378,1.2378,1.2378,0,1.1636,1.1676,1.1728,1.1798,1.1841,1.1861,1.1918,1.1953,1.2006,1.2058,1.2107,1.2174,1.2232,1.2287,1.2347,1.2375,1.2387,1.2389,1.2387,1.2395,1.2377,1.2364,1.2377,1.2377,1.2377,1.2377,1.2377,1.2377,1.1655,1.1713,1.1743,1.1823,1.1863,1.1922,1.1953,1.1995,1.2037,1.2111,1.2159,1.2194,1.2248,1.2312,1.2365,1.238,1.24,1.2398,1.2415,1.2397,1.2396,1.2396,1.2384,1.2402,1.2402,1.243,1.243,1.243]},{"header":{"parameterUnit":"m.s-1","parameterCategory":1,"la1":30.2991,"la2":30.254,"lo1":-89.0895,"lo2":-89.0444,"dy":0.0017,"dx":0.0017,"nx":28,"ny":28,"refTime":"2023-08-16T21:00:00:Z","depth":0,"parameterNumber":3,"parameterNumberName":"V-component_of_WINDS"},"data":[0,0,0,0,0,0,0,0,0,0,0,0,0,0,0,0,0,0,0,0,0,0,0,0,0,0,0,0,0,0,0,0,0,0,0,0,0,0,0,0,0,0,0,0,0,0,0,0,0,0,0,0,0,0,0,0,0,0,5.7133,5.7133,0,5.7097,5.7097,5.7097,5.7011,5.7009,5.7007,5.7006,5.6971,5.6972,5.6973,0,0,0,0,0,0,0,0,0,0,0,0,0,5.7129,5.713,5.7133,5.7132,5.7132,5.7097,5.7097,5.7096,5.7011,5.7009,5.7007,5.7005,5.6971,5.6972,5.6973,0,0,0,0,0,0,0,0,0,0,0,0,0,5.7116,5.713,5.7133,5.7085,5.7081,5.7098,5.7097,5.7096,5.7012,5.7009,5.7006,5.7004,5.6971,5.6972,5.6973,5.7034,0,0,5.6977,5.6977,0,0,0,0,0,0,0,0,5.7117,5.7116,5.7093,5.7089,5.7084,5.7056,5.7083,5.7075,5.7013,5.7038,5.7006,5.7003,5.7002,5.7,5.6999,5.7032,5.7031,5.6977,5.6977,5.6978,5.6978,0,0,0,0,0,0,0,5.7118,5.7117,5.7119,5.7093,5.7087,5.7066,5.7062,5.7081,5.7036,5.7036,5.7029,5.7026,5.6999,5.6999,5.6998,5.703,5.6977,5.6978,5.6978,5.6979,5.711,5.7113,0,0,0,0,0,0,5.7125,5.7119,5.712,5.7118,5.7094,5.7069,5.7063,5.7068,5.7035,5.7027,5.7029,5.7022,5.6998,5.6997,5.6997,5.7064,5.6978,5.6979,5.6979,5.7107,5.7111,5.7114,0,0,0,0,0,0,5.7126,5.7126,5.7121,5.7116,5.7114,5.7072,5.7077,5.7068,5.7068,5.703,5.7021,5.7037,5.6996,5.6995,5.7025,5.7061,5.6979,5.698,5.7104,5.7108,5.7112,5.72,0,0,0,0,0,0,5.7126,5.7127,5.7149,5.7118,5.7115,5.715,5.7079,5.7069,5.707,5.7061,5.7035,5.7028,5.6994,5.7024,5.7026,5.7062,5.6981,5.71,5.7106,5.7111,5.7194,5.7207,5.7218,0,0,0,0,0,5.7126,5.7176,5.7151,5.7151,5.7141,5.7152,5.7151,5.7109,5.7073,5.7095,5.7071,5.7029,5.7058,5.7027,5.7029,5.7066,5.7098,5.7104,5.711,5.7188,5.7204,5.7218,0,0,0,0,0,0,5.7213,5.7171,5.7142,5.7183,5.7172,5.7138,5.7164,5.7128,5.7127,5.7119,5.7069,5.7064,5.71,5.7087,5.7053,5.7123,5.7071,5.7078,5.713,5.7145,5.7157,5.7158,5.6982,0,0,0,0,0,5.7237,5.7249,5.7212,5.7252,5.7247,5.7207,5.721,5.7179,5.7166,5.7161,5.7138,5.7127,5.7133,5.7139,5.7143,5.7193,5.7185,5.7219,5.7231,5.7241,5.7247,5.7271,5.7285,5.7134,5.7134,5.7134,0,0,5.7287,5.7265,5.7276,5.7268,5.7256,5.7269,5.7203,5.7221,5.723,5.7163,5.7189,5.7173,5.7157,5.7197,5.7214,5.7187,5.7287,5.7249,5.7258,5.7258,5.7279,5.7293,5.7306,5.7139,5.7138,5.7137,0,0,5.7383,5.7369,5.7399,5.7388,5.737,5.7343,5.7351,5.7322,5.7308,5.7334,5.7284,5.7295,5.7308,5.7298,5.7295,5.7389,5.735,5.7392,5.7455,5.7479,5.7491,5.7501,5.7532,5.7545,5.7399,5.7399,5.7399,0,5.7447,5.7464,5.742,5.744,5.7438,5.7379,5.7409,5.7401,5.7386,5.7386,5.7356,5.737,5.7356,5.7391,5.7414,5.7415,5.7421,5.7393,5.7492,5.7502,5.7511,5.7541,5.7553,5.7404,5.7403,5.7403,5.7402,0,5.7543,5.7556,5.7583,5.7568,5.757,5.7596,5.7556,5.7563,5.7533,5.7509,5.7536,5.7517,5.7515,5.7522,5.7493,5.7554,5.7537,5.7501,5.7448,5.7531,5.7558,5.7569,5.7411,5.7409,5.7408,5.7407,0,0,5.7691,5.7652,5.7662,5.7654,5.7631,5.764,5.7664,5.7661,5.7667,5.766,5.7677,5.769,5.7656,5.7652,5.7622,5.7644,5.7717,5.7604,5.7603,5.7624,5.7781,5.7806,5.782,5.7693,5.7695,5.7696,5.7782,0,5.7779,5.7815,5.7776,5.782,5.7831,5.7776,5.7796,5.7784,5.7763,5.777,5.7747,5.7756,5.7712,5.7709,5.7728,5.7704,5.7748,5.7698,5.7707,5.7708,5.771,5.7835,5.7861,5.7943,5.7792,5.7794,5.7795,0,5.7886,5.7882,5.7927,5.79,5.7903,5.7921,5.7916,5.7924,5.7909,5.7893,5.7889,5.7853,5.7874,5.7825,5.7852,5.782,5.7822,5.7811,5.7813,5.781,5.7755,5.7833,5.7968,5.7979,5.7812,5.781,5.7809,0,5.7987,5.7993,5.802,5.8015,5.7985,5.7999,5.7987,5.797,5.7971,5.7968,5.7967,5.7967,5.7966,5.7967,5.7931,5.7899,5.7963,5.7911,5.7949,5.795,5.7963,5.7962,5.8097,5.7969,5.7969,5.7969,5.7968,0,5.8088,5.8117,5.8064,5.8081,5.8112,5.8068,5.81,5.8083,5.8068,5.8081,5.8035,5.8047,5.8001,5.8009,5.7982,5.8008,5.8009,5.7996,5.7988,5.7998,5.8,5.7997,5.7989,5.7972,5.7971,5.7971,5.797,0,5.8203,5.817,5.8195,5.8165,5.8158,5.8182,5.8156,5.817,5.8147,5.8163,5.8164,5.8128,5.8135,5.8101,5.8102,5.8084,5.8123,5.8107,5.8128,5.8121,5.8161,5.8156,5.8297,5.8312,5.8177,5.8178,5.818,0,5.8268,5.8289,5.8261,5.8265,5.8256,5.8264,5.8265,5.8224,5.8226,5.8212,5.8228,5.8231,5.8231,5.8245,5.8219,5.822,5.8202,5.8251,5.8201,5.8211,5.8199,5.8197,5.8198,5.826,5.8262,5.8263,5.8265,0,5.8387,5.8369,5.8371,5.8368,5.837,5.8366,5.8359,5.8366,5.8321,5.8327,5.8333,5.8333,5.8334,5.8338,5.8333,5.8322,5.8286,5.8281,5.8289,5.8299,5.8309,5.8301,5.8153,5.8277,5.8276,5.8275,5.8274,5.8274,5.8477,5.8492,5.8475,5.8479,5.8469,5.8464,5.8475,5.8453,5.8458,5.8454,5.8431,5.8441,5.8427,5.8417,5.8409,5.8417,5.8394,5.8406,5.8409,5.8412,5.8418,5.831,5.8417,5.8416,5.8416,5.8415,5.8415,0,5.8591,5.8577,5.8581,5.8572,5.8576,5.8542,5.8533,5.8537,5.8547,5.8537,5.8537,5.8545,5.8548,5.8523,5.8523,5.8534,5.8518,5.8535,5.8533,5.853,5.844,5.8431,5.8549,5.8549,5.8549,5.8549,5.8549,5.8549,5.865,5.8673,5.8654,5.8673,5.8659,5.8668,5.8666,5.866,5.8651,5.8661,5.8663,5.8647,5.8631,5.8629,5.8631,5.8623,5.8625,5.8648,5.8634,5.855,5.8537,5.8524,5.8516,5.8649,5.8649,5.8723,5.8724,5.8725]}]]